Temp
82 78 75 71 60 58 57 63 71 69 70 76 78 74 70 70 67 57 72 77 77 77 79 81 82 83 83 83 83 83 83 83 83 83 83 83 83 83 84 84 83 83 84 84 84 84 84 84 84
79 77 70 65 55 52 54 68 65 70 75 77 78 75 70 66 72 70 71 78 79 78 77 80 82 83 83 83 83 83 83 83 83 83 83 83 83 83 84 84 84 84 84 84 84 84 84 84 84
80 81 67 60 56 53 56 69 69 76 79 78 75 77 72 66 72 72 75 79 79 77 76 78 82 83 83 83 83 83 84 83 83 83 83 84 84 84 84 84 84 84 84 84 84 84 84 84 84
78 71 68 58 58 66 67 71 75 76 79 81 77 70 75 79 76 76 79 79 77 75 76 81 83 83 83 84 83 83 83 83 83 84 83 84 84 84 84 84 84 84 84 84 84 84 84 84 84
75 68 59 60 63 70 72 75 78 74 76 76 77 69 69 78 79 78 78 79 75 74 77 81 83 83 84 84 84 83 84 83 83 84 84 84 84 84 84 85 84 84 84 84 84 83 84 83 83
67 67 57 56 65 71 74 77 78 75 76 75 72 70 69 77 76 78 79 76 77 76 78 80 83 83 83 84 84 83 83 83 84 84 84 84 84 84 84 84 84 84 84 84 84 84 84 84 84
67 63 62 62 66 69 72 78 75 75 74 74 78 66 68 73 78 80 77 77 77 78 77 77 79 81 84 83 83 84 83 83 84 84 84 84 84 84 84 84 85 85 85 84 84 84 83 83 84
70 66 64 64 65 66 77 78 81 77 75 84 81 66 63 74 80 78 77 76 75 76 76 75 76 77 77 79 83 84 83 84 84 84 84 84 85 85 84 83 84 85 84 84 84 83 83 84 84
78 62 60 66 69 72 79 76 82 85 79 81 82 77 78 79 79 76 74 74 74 76 74 74 75 74 75 76 81 83 84 84 84 83 84 82 76 77 80 82 84 85 84 84 84 83 84 84 84
69 61 68 77 76 75 80 78 79 77 77 77 76 79 79 78 76 73 71 71 72 73 73 73 74 74 74 81 76 75 78 76 76 77 77 75 75 75 79 81 84 85 84 84 84 84 82 80 76
72 67 76 81 82 82 80 79 82 75 71 76 71 73 77 76 75 74 73 74 72 74 75 74 72 73 74 77 73 73 74 74 74 75 75 74 75 75 75 75 75 76 82 79 80 79 76 75 74
72 79 80 82 84 83 79 82 77 77 76 83 78 78 77 76 75 75 74 75 75 75 76 76 74 73 73 74 74 73 74 73 73 74 75 74 73 73 73 73 74 73 74 75 75 74 73 74 75
76 79 83 82 82 83 83 78 77 78 82 83 81 80 77 77 77 78 78 78 78 76 78 77 76 75 75 74 74 74 74 74 75 74 75 74 73 72 72 73 73 73 73 74 73 72 72 73 73
81 81 81 80 79 82 78 78 79 78 82 81 80 78 79 79 79 80 79 78 78 78 78 79 78 77 76 75 74 76 74 75 74 74 75 74 73 72 72 72 73 73 73 73 72 71 71 71 71
82 74 76 77 77 77 80 72 72 79 82 79 79 78 80 80 81 80 80 79 80 80 80 79 78 78 76 76 75 75 76 76 75 76 76 75 75 73 73 72 72 74 74 74 73 72 71 70 71
76 73 65 75 76 77 74 63 74 79 79 76 79 80 80 80 81 81 82 81 81 81 79 80 83 80 77 76 75 76 77 79 75 75 75 76 76 75 73 74 73 75 74 75 75 71 69 69 69
70 62 66 71 78 76 71 65 75 80 78 76 77 79 79 78 78 80 83 82 82 81 79 78 80 78 78 75 75 75 77 80 76 76 76 76 76 77 75 74 75 76 74 71 74 70 70 70 70
64 65 69 67 74 74 69 68 75 78 78 77 77 78 77 77 78 80 82 83 83 80 79 78 80 78 77 74 74 74 74 76 77 77 76 78 76 77 75 74 75 74 74 72 73 70 70 71 70
72 71 69 72 76 72 69 71 73 77 78 76 76 76 76 77 80 80 82 83 82 79 78 76 75 75 75 72 71 71 71 73 74 76 78 78 76 75 74 74 74 73 72 72 72 71 71 69 69
72 69 67 72 76 72 69 70 75 77 77 78 77 76 78 78 77 78 81 81 81 79 78 77 77 73 75 73 72 74 73 73 75 76 76 77 77 76 75 73 73 73 72 72 71 71 70 69 70
66 66 68 69 72 73 70 65 69 77 79 80 81 81 80 78 76 78 79 80 80 79 78 77 75 75 74 74 73 72 73 73 72 73 74 76 77 76 75 74 73 73 72 71 71 71 70 68 69
59 76 77 71 64 58 71 53 63 72 75 77 80 80 79 75 78 77 77 77 79 80 80 79 77 75 75 74 73 73 71 71 72 74 76 76 77 77 76 75 74 73 72 72 72 72 71 70 68
73 76 72 70 63 58 61 58 61 69 69 74 78 81 81 76 80 82 81 79 81 82 80 79 77 76 77 76 76 74 72 72 73 73 74 74 74 76 76 75 74 73 72 72 72 72 71 71 69
77 73 67 59 57 54 58 59 58 63 74 76 77 81 81 78 80 81 82 82 81 83 82 79 75 76 76 76 75 75 74 73 72 72 71 72 73 75 76 76 74 73 74 73 73 72 72 71 71
71 61 52 54 51 53 54 60 63 70 76 78 78 79 81 81 75 79 77 77 80 81 81 78 75 75 76 76 76 75 76 75 73 73 72 71 72 72 75 75 74 74 72 73 73 72 72 71 71
62 62 54 47 48 54 58 54 65 70 77 80 79 76 78 76 83 82 80 78 79 79 80 80 75 75 74 72 72 75 76 77 78 76 76 73 72 71 75 72 68 68 68 69 70 72 72 72 72
62 60 61 53 45 51 54 63 72 73 72 74 74 76 77 77 80 77 77 79 78 79 79 79 77 75 72 72 73 72 72 75 76 74 74 73 72 71 70 68 67 68 69 68 68 70 73 71 72
68 71 59 53 48 45 54 55 59 65 68 72 72 74 76 77 79 76 78 76 76 75 75 75 72 72 73 71 71 72 74 72 74 75 75 74 73 72 68 67 69 70 72 68 68 68 72 72 72
66 60 57 56 53 49 49 56 66 71 72 72 74 74 74 76 74 74 74 73 73 74 74 74 72 70 71 73 73 70 77 73 73 72 74 76 74 72 68 69 70 70 68 67 67 68 71 73 73
69 66 60 56 53 49 53 57 71 73 75 76 73 73 73 73 72 73 71 71 72 74 74 73 71 72 76 74 71 71 79 80 74 73 74 74 75 73 69 69 69 67 67 68 70 72 73 74 74
MSLP
1012.01 1012.57 1013.14 1013.34 1013.74 1012.94 1012.52 1011.85 1011.22 1010.90 1010.80 1010.90 1011.45 1011.99 1012.87 1013.28 1013.89 1015.16 1014.91 1015.12 1015.46 1015.98 1016.15 1016.35 1016.46 1016.64 1016.81 1016.88 1016.86 1016.84 1016.90 1017.01 1017.08 1017.16 1017.26 1017.30 1017.41 1017.56 1017.60 1017.71 1017.87 1018.02 1018.04 1018.07 1018.23 1018.37 1018.47 1018.51 1018.68
1011.99 1012.62 1013.42 1013.37 1013.61 1013.40 1013.19 1012.11 1011.27 1010.78 1010.79 1010.89 1011.49 1012.01 1012.72 1013.62 1013.96 1014.73 1015.20 1015.36 1015.54 1016.02 1016.27 1016.47 1016.62 1016.74 1016.81 1016.90 1017.04 1017.09 1017.03 1017.17 1017.15 1017.23 1017.24 1017.33 1017.60 1017.76 1017.80 1017.98 1018.11 1018.18 1018.26 1018.39 1018.46 1018.64 1018.67 1018.78 1018.89
1011.76 1011.82 1012.51 1013.01 1013.49 1013.18 1012.74 1012.03 1011.42 1011.07 1010.87 1010.79 1011.60 1012.17 1013.09 1013.92 1014.37 1014.72 1014.90 1015.31 1015.73 1016.26 1016.49 1016.70 1016.77 1016.86 1016.96 1017.14 1017.14 1017.23 1017.27 1017.32 1017.38 1017.47 1017.53 1017.73 1017.87 1017.97 1018.13 1018.16 1018.26 1018.35 1018.51 1018.59 1018.70 1018.79 1018.89 1019.04 1019.13
1011.37 1011.82 1012.32 1012.74 1012.91 1012.22 1011.82 1011.22 1010.95 1010.93 1011.14 1011.36 1011.81 1012.70 1013.39 1013.50 1014.07 1014.46 1015.04 1015.29 1016.00 1016.41 1016.60 1016.72 1016.87 1017.04 1017.23 1017.30 1017.33 1017.48 1017.48 1017.62 1017.77 1017.84 1017.90 1017.97 1018.12 1018.23 1018.20 1018.22 1018.50 1018.61 1018.68 1018.83 1018.93 1018.90 1019.07 1019.19 1019.32
1011.50 1012.13 1012.51 1012.54 1012.60 1011.99 1011.55 1010.96 1010.80 1011.14 1011.39 1011.83 1012.05 1013.26 1013.91 1014.30 1014.26 1014.79 1015.35 1015.75 1016.18 1016.57 1016.75 1016.92 1017.07 1017.20 1017.40 1017.53 1017.61 1017.71 1017.76 1017.93 1018.02 1018.03 1018.12 1018.17 1018.26 1018.37 1018.39 1018.49 1018.66 1018.87 1019.03 1019.16 1019.22 1019.14 1019.25 1019.44 1019.52
1012.12 1012.86 1012.96 1012.37 1011.87 1011.62 1011.33 1011.00 1011.16 1011.39 1011.70 1012.30 1012.76 1013.33 1014.45 1014.48 1014.57 1015.34 1015.73 1016.13 1016.39 1016.75 1016.86 1017.11 1017.20 1017.34 1017.56 1017.69 1017.80 1017.93 1018.00 1018.07 1018.23 1018.32 1018.37 1018.42 1018.54 1018.63 1018.63 1018.68 1018.84 1018.96 1019.17 1019.29 1019.45 1019.51 1019.61 1019.73 1019.70
1012.35 1012.97 1012.51 1012.23 1011.71 1011.49 1011.33 1011.23 1011.21 1011.38 1011.79 1012.54 1012.80 1013.86 1015.04 1015.20 1015.44 1015.72 1016.22 1016.65 1016.72 1016.94 1017.11 1017.23 1017.25 1017.44 1017.72 1017.90 1017.97 1018.07 1018.13 1018.19 1018.31 1018.37 1018.49 1018.63 1018.77 1018.87 1018.87 1018.86 1018.93 1019.03 1019.22 1019.35 1019.53 1019.76 1019.88 1019.95 1019.85
1012.64 1012.94 1012.42 1011.87 1011.33 1010.95 1010.64 1010.96 1011.26 1011.27 1011.75 1012.26 1012.89 1013.94 1015.03 1015.26 1015.74 1016.26 1016.76 1017.07 1017.24 1017.24 1017.40 1017.40 1017.47 1017.70 1017.89 1018.00 1018.06 1018.20 1018.29 1018.41 1018.48 1018.55 1018.69 1018.81 1018.92 1019.04 1019.13 1019.08 1019.15 1019.30 1019.41 1019.48 1019.58 1019.78 1019.84 1020.02 1019.97
1012.08 1012.26 1011.90 1010.89 1010.21 1010.03 1010.28 1010.70 1011.33 1011.28 1011.66 1012.19 1012.54 1013.24 1013.94 1015.14 1015.94 1016.70 1017.24 1017.50 1017.61 1017.64 1017.73 1017.61 1017.69 1017.86 1018.03 1018.09 1018.17 1018.29 1018.43 1018.53 1018.66 1018.73 1018.77 1018.87 1019.19 1019.20 1019.44 1019.45 1019.39 1019.44 1019.48 1019.52 1019.68 1019.86 1019.90 1019.79 1019.76
1012.08 1011.50 1010.46 1009.41 1009.37 1009.36 1009.70 1010.42 1010.83 1011.53 1012.08 1012.39 1012.93 1013.65 1014.58 1015.35 1015.98 1016.56 1017.16 1017.41 1017.62 1017.67 1017.78 1017.82 1017.77 1017.88 1018.10 1018.13 1018.32 1018.51 1018.64 1018.83 1018.98 1019.07 1019.12 1019.25 1019.44 1019.49 1019.68 1019.62 1019.56 1019.62 1019.65 1019.64 1019.89 1019.94 1020.07 1019.93 1020.02
1011.03 1010.56 1009.62 1008.95 1008.83 1009.14 1009.73 1010.62 1010.72 1011.59 1012.19 1012.07 1012.65 1013.70 1014.65 1015.41 1016.10 1016.48 1016.87 1016.81 1016.82 1017.39 1017.82 1017.90 1017.82 1017.89 1018.02 1018.06 1018.41 1018.66 1018.86 1019.07 1019.21 1019.32 1019.44 1019.53 1019.59 1019.70 1019.70 1019.74 1019.73 1019.94 1019.90 1020.04 1020.04 1020.17 1020.30 1020.17 1020.11
1010.42 1009.66 1009.04 1008.70 1008.75 1009.20 1009.88 1010.35 1010.95 1011.26 1011.38 1011.94 1012.84 1013.40 1014.35 1015.20 1015.75 1016.14 1016.49 1016.80 1017.15 1017.38 1017.51 1017.77 1017.86 1017.94 1018.05 1018.10 1018.32 1018.54 1018.81 1019.11 1019.29 1019.30 1019.45 1019.69 1019.83 1019.97 1019.98 1019.92 1020.13 1020.31 1020.40 1020.24 1020.36 1020.46 1020.52 1020.39 1020.24
1010.02 1009.25 1009.02 1009.08 1009.13 1009.24 1009.83 1010.25 1010.80 1011.40 1011.62 1012.21 1013.08 1013.69 1014.28 1014.86 1015.41 1015.86 1016.15 1016.42 1016.84 1017.21 1017.31 1017.54 1017.59 1017.73 1017.89 1018.14 1018.30 1018.49 1018.73 1018.97 1019.07 1019.20 1019.22 1019.41 1019.70 1019.89 1020.04 1020.09 1020.13 1020.31 1020.44 1020.43 1020.45 1020.63 1020.62 1020.50 1020.49
1009.06 1008.85 1009.17 1009.49 1009.54 1009.57 1010.16 1010.84 1011.06 1011.77 1011.90 1012.47 1013.20 1013.66 1014.17 1014.56 1014.92 1015.63 1016.15 1016.35 1016.59 1016.82 1016.96 1017.27 1017.51 1017.51 1017.65 1017.97 1018.30 1018.38 1018.59 1018.83 1019.09 1019.13 1019.03 1019.21 1019.49 1019.65 1019.89 1020.01 1020.03 1020.05 1020.18 1020.46 1020.49 1020.58 1020.55 1020.51 1020.65
1009.25 1009.63 1009.50 1009.73 1010.07 1010.41 1010.41 1011.38 1011.41 1011.70 1012.06 1012.44 1012.84 1013.44 1013.84 1014.10 1014.67 1014.79 1015.11 1015.64 1015.95 1016.33 1016.52 1016.92 1017.21 1017.43 1017.69 1017.69 1018.14 1018.35 1018.45 1018.73 1018.93 1018.91 1018.83 1018.94 1019.16 1019.37 1019.59 1019.86 1020.01 1019.91 1019.74 1019.99 1020.20 1020.43 1020.57 1020.62 1020.63
1009.35 1009.78 1010.21 1010.14 1010.31 1010.61 1010.90 1011.47 1011.75 1011.91 1012.39 1012.72 1012.82 1012.94 1013.37 1013.81 1014.01 1014.25 1014.69 1015.22 1015.55 1016.01 1016.29 1016.68 1017.11 1017.39 1017.59 1017.60 1017.83 1018.10 1018.30 1018.36 1018.65 1018.72 1018.68 1018.73 1018.87 1019.08 1019.27 1019.47 1019.60 1019.51 1019.70 1019.79 1019.88 1020.19 1020.62 1020.73 1020.83
1009.60 1009.92 1010.07 1010.35 1010.10 1010.49 1011.13 1011.50 1011.69 1012.00 1012.38 1012.75 1012.89 1012.98 1012.98 1013.13 1013.63 1013.76 1014.03 1014.61 1015.00 1015.41 1015.97 1016.42 1016.85 1017.12 1017.38 1017.51 1017.71 1017.87 1017.94 1017.99 1018.21 1018.44 1018.53 1018.63 1018.77 1018.79 1019.12 1019.12 1019.10 1019.09 1019.38 1019.65 1019.83 1020.28 1020.50 1020.81 1020.97
1009.71 1009.85 1009.80 1009.82 1010.04 1010.60 1011.23 1011.17 1011.29 1011.66 1012.09 1012.35 1012.64 1012.85 1013.02 1013.00 1013.08 1013.36 1013.70 1014.10 1014.58 1015.11 1015.67 1016.24 1016.69 1017.03 1017.34 1017.51 1017.70 1017.89 1017.99 1017.97 1018.03 1018.18 1018.36 1018.48 1018.69 1018.78 1018.95 1019.05 1019.04 1019.03 1019.31 1019.72 1019.93 1020.18 1020.46 1020.66 1020.87
1008.29 1008.86 1009.06 1009.14 1009.33 1010.10 1010.89 1011.10 1010.99 1011.42 1011.99 1012.16 1012.38 1012.68 1012.68 1012.59 1012.48 1012.87 1013.21 1013.64 1014.31 1014.96 1015.53 1016.07 1016.55 1016.80 1017.20 1017.61 1018.08 1018.20 1018.14 1018.08 1018.23 1018.08 1018.04 1018.16 1018.49 1018.76 1018.82 1018.94 1018.97 1018.97 1019.25 1019.40 1019.67 1019.95 1020.22 1020.63 1020.74
1007.34 1008.10 1008.71 1009.01 1009.34 1010.29 1010.97 1011.23 1010.95 1011.07 1010.93 1011.33 1011.71 1012.11 1012.35 1012.52 1012.65 1012.77 1013.05 1013.43 1013.82 1014.29 1015.07 1015.95 1016.30 1016.62 1016.93 1017.13 1017.44 1017.65 1017.87 1017.90 1017.81 1017.86 1018.00 1018.03 1018.18 1018.37 1018.44 1018.58 1018.74 1018.76 1019.10 1019.32 1019.57 1019.82 1020.06 1020.10 1020.22
1006.95 1007.38 1008.09 1008.76 1009.88 1010.58 1011.15 1011.61 1011.43 1011.02 1011.08 1011.30 1011.35 1011.49 1011.97 1012.55 1013.30 1013.38 1013.05 1013.09 1013.82 1014.36 1014.77 1015.31 1015.85 1016.17 1016.60 1016.99 1017.38 1017.65 1017.83 1017.90 1018.05 1018.05 1018.03 1017.81 1017.87 1018.02 1018.22 1018.35 1018.49 1018.50 1018.70 1019.13 1019.39 1019.58 1019.84 1019.98 1020.06
1006.63 1006.65 1007.44 1008.86 1010.02 1011.04 1011.11 1012.03 1011.12 1010.76 1010.54 1010.60 1010.52 1010.71 1011.61 1012.71 1013.49 1013.44 1013.90 1014.08 1013.72 1013.66 1014.65 1015.10 1015.45 1015.91 1016.33 1016.70 1017.02 1017.41 1017.70 1018.02 1017.89 1017.62 1017.54 1017.48 1017.47 1017.61 1017.78 1018.09 1018.35 1018.53 1018.70 1019.00 1019.00 1019.16 1019.45 1019.79 1019.89
1006.27 1006.59 1007.73 1009.02 1010.15 1010.95 1011.35 1011.72 1010.34 1010.13 1010.31 1009.76 1009.49 1010.02 1011.16 1012.13 1011.87 1010.69 1012.16 1012.80 1013.05 1013.80 1014.00 1014.81 1015.49 1015.73 1015.96 1016.19 1016.42 1016.97 1017.41 1017.53 1017.45 1017.47 1017.57 1017.53 1017.39 1017.52 1017.59 1017.86 1018.11 1018.34 1018.52 1018.70 1018.86 1019.00 1019.24 1019.41 1019.56
1005.97 1007.10 1008.73 1010.17 1011.06 1011.76 1010.87 1010.98 1010.38 1009.87 1008.72 1008.75 1008.87 1009.52 1010.03 1010.66 1011.04 1010.61 1010.69 1011.28 1012.58 1012.88 1013.49 1014.19 1015.11 1015.55 1015.62 1016.11 1016.39 1016.54 1016.80 1016.98 1017.27 1017.33 1017.56 1017.44 1017.32 1017.36 1017.34 1017.58 1017.88 1018.00 1018.05 1018.30 1018.16 1018.30 1018.57 1018.84 1019.06
1006.62 1008.54 1010.19 1011.33 1012.11 1012.05 1011.04 1010.55 1009.53 1008.63 1008.19 1007.92 1008.11 1008.64 1009.27 1009.97 1010.77 1010.49 1011.25 1011.24 1011.57 1012.65 1013.63 1014.06 1014.38 1015.07 1015.63 1015.96 1016.03 1016.31 1016.44 1016.49 1016.51 1016.79 1017.05 1017.26 1017.24 1017.36 1017.12 1017.06 1017.46 1017.95 1018.22 1018.23 1017.85 1017.93 1018.15 1018.33 1018.58
1007.29 1008.72 1010.53 1011.95 1012.86 1012.04 1010.85 1010.38 1009.80 1008.52 1007.59 1007.69 1007.99 1008.66 1009.42 1009.81 1009.46 1009.86 1010.48 1011.37 1011.41 1012.22 1013.03 1013.58 1013.51 1014.42 1015.61 1016.86 1017.66 1017.63 1016.93 1016.49 1016.28 1016.20 1016.35 1016.73 1016.95 1016.78 1017.14 1017.65 1018.12 1018.51 1018.58 1018.59 1018.44 1018.40 1017.94 1017.51 1017.76
1007.45 1008.83 1009.55 1011.18 1012.71 1012.49 1011.70 1010.38 1009.79 1009.31 1008.73 1008.65 1008.86 1009.18 1009.39 1009.53 1009.26 1010.34 1010.34 1010.40 1010.80 1011.60 1012.12 1012.98 1014.63 1015.75 1016.30 1017.40 1017.47 1017.00 1017.12 1016.96 1016.48 1016.53 1016.42 1016.14 1016.27 1016.89 1017.34 1017.24 1017.19 1017.00 1016.86 1017.12 1017.44 1017.71 1017.57 1017.27 1017.05
1006.30 1007.73 1009.69 1011.32 1012.59 1012.88 1011.97 1011.00 1010.28 1010.21 1009.67 1009.36 1009.61 1009.72 1009.72 1009.68 1009.50 1010.12 1010.13 1010.37 1010.66 1011.35 1011.95 1012.95 1013.57 1014.62 1014.13 1014.40 1015.71 1016.63 1016.48 1016.21 1016.27 1016.21 1015.51 1015.54 1015.96 1016.35 1016.55 1016.70 1016.45 1016.19 1015.95 1016.22 1016.40 1016.81 1016.68 1016.73 1016.36
1006.65 1007.68 1009.42 1010.90 1011.85 1012.36 1012.36 1010.86 1009.38 1009.89 1009.70 1009.75 1010.00 1009.93 1010.02 1010.03 1009.97 1009.68 1009.87 1010.59 1010.98 1011.35 1011.81 1012.03 1012.14 1013.30 1013.34 1012.73 1013.45 1015.83 1016.39 1015.76 1015.78 1015.69 1015.20 1015.08 1015.65 1015.99 1016.26 1016.14 1015.61 1015.74 1015.80 1016.09 1015.77 1015.74 1016.07 1015.95 1015.60
1006.04 1006.83 1008.52 1010.64 1011.99 1012.23 1011.33 1010.21 1008.94 1009.59 1009.53 1009.63 1010.01 1010.08 1009.87 1010.03 1010.15 1010.50 1010.78 1011.19 1011.52 1011.58 1011.68 1012.11 1013.20 1013.63 1013.56 1013.11 1014.82 1015.90 1015.40 1014.70 1014.59 1014.71 1014.50 1014.59 1014.77 1015.30 1015.64 1015.75 1015.30 1015.64 1015.74 1015.44 1015.06 1014.44 1015.13 1014.69 1014.73
Wind_Speed
8 4 3 1 2 5 4 4 2 2 3 1 11 3 7 6 2 4 6 7 11 9 7 9 13 12 11 10 8 9 9 9 12 12 13 14 14 13 14 14 14 12 13 13 14 13 12 12 14
5 5 3 1 5 4 4 7 7 6 7 13 9 5 5 4 4 10 6 10 12 8 6 7 12 12 12 10 10 9 9 10 10 11 12 13 12 12 14 14 13 13 12 13 12 12 11 12 12
8 4 2 4 3 3 3 2 4 8 3 5 5 6 3 2 8 10 9 14 11 7 6 7 13 12 12 11 11 10 9 10 11 11 12 12 12 13 14 12 14 13 12 11 12 11 10 10 11
0 3 2 5 2 0 6 5 8 7 9 6 7 6 4 1 10 8 15 14 10 7 6 10 14 14 13 11 11 10 9 11 11 11 12 12 13 12 14 13 12 12 12 11 10 10 10 11 10
3 3 4 3 4 3 2 2 4 7 4 10 5 5 5 6 9 16 14 11 11 8 6 9 13 14 13 12 11 9 10 11 11 11 12 12 13 13 12 14 12 11 11 10 9 8 9 9 9
4 2 4 2 3 4 2 3 5 11 10 10 9 7 3 10 15 11 11 10 9 8 6 8 13 13 12 11 10 9 10 10 11 11 11 12 11 12 12 12 12 11 10 9 9 8 8 9 9
4 2 2 1 4 4 7 4 6 10 12 9 12 5 3 6 8 11 9 8 8 6 6 5 5 10 13 12 11 10 9 10 10 9 11 10 12 12 11 11 11 10 10 9 8 8 8 8 7
1 3 2 2 3 2 9 7 6 14 6 13 10 5 6 9 11 10 9 8 5 5 4 5 5 5 5 6 12 11 9 11 10 10 9 12 11 11 10 9 9 9 8 7 7 7 7 8 6
1 4 2 5 7 7 11 6 10 3 13 5 8 7 10 16 14 11 10 6 5 5 4 4 5 5 5 5 7 10 10 9 10 9 9 7 2 5 6 6 8 7 7 6 6 7 7 7 7
1 3 6 4 1 5 12 13 12 7 12 3 8 12 17 17 15 14 13 11 8 8 6 5 5 6 6 5 4 4 3 3 2 3 3 2 3 4 4 5 7 7 6 5 5 7 8 5 2
5 4 2 3 7 6 14 12 5 15 4 13 19 21 20 16 13 13 13 14 15 10 7 7 6 5 6 5 4 2 2 2 2 3 3 3 2 1 2 1 1 1 4 1 3 4 2 2 1
3 4 2 3 6 6 12 9 8 10 5 12 17 21 21 17 15 14 13 12 10 11 11 9 7 6 5 4 4 4 4 3 3 4 5 3 2 2 2 1 1 1 1 1 1 2 3 3 3
3 5 1 6 2 6 10 9 9 8 10 9 17 18 19 16 14 12 11 11 11 11 11 11 9 8 7 6 4 4 4 4 5 4 5 4 3 4 3 3 2 3 2 2 2 1 3 3 4
1 5 6 6 6 6 10 4 5 4 9 9 14 17 16 16 15 11 11 11 12 12 11 11 11 9 7 6 5 5 4 4 4 4 5 5 4 4 4 4 3 4 4 3 4 4 4 4 3
3 5 4 3 4 2 7 4 5 11 12 11 9 11 15 14 12 15 17 15 15 12 12 12 11 8 7 8 6 4 5 4 4 5 6 6 6 6 5 4 4 5 4 6 4 3 3 3 3
3 5 3 2 3 2 3 4 5 11 13 9 9 8 11 14 12 13 14 15 14 11 13 11 10 10 7 7 6 4 4 4 4 4 4 6 6 6 5 4 5 4 4 5 4 3 3 3 3
1 3 3 3 8 4 2 3 8 11 12 12 11 10 9 8 7 9 14 15 14 13 12 12 11 10 10 6 5 5 6 4 4 4 4 6 6 6 5 4 4 4 4 4 5 2 2 3 3
6 4 4 5 8 4 3 4 14 16 14 15 13 11 9 8 9 9 13 14 14 11 11 9 11 9 8 5 3 2 3 3 3 5 4 6 5 5 4 3 4 4 3 4 3 3 4 3 3
7 6 8 4 7 6 7 5 16 17 14 13 13 12 11 11 7 9 13 13 12 10 10 9 9 8 6 3 3 2 3 3 2 4 6 7 5 6 6 4 3 3 4 5 5 3 5 3 2
2 8 4 2 8 6 5 11 13 18 22 18 16 14 14 10 6 8 12 14 15 15 14 10 10 7 7 3 3 2 2 2 2 3 4 6 6 7 6 6 5 5 3 4 5 4 2 3 4
2 8 6 4 5 4 4 5 7 12 10 12 14 13 12 10 5 6 12 16 14 15 15 13 11 10 7 6 3 2 2 2 1 1 3 6 7 7 6 6 5 5 4 4 4 5 5 3 2
2 4 4 9 6 5 8 6 6 11 16 13 16 15 9 10 2 6 7 8 13 16 12 11 10 9 7 7 5 5 4 4 4 4 4 5 7 7 6 6 6 5 3 5 5 4 4 3 4
7 3 2 6 7 5 3 3 7 10 9 16 16 15 10 13 17 19 12 12 12 11 12 11 10 9 9 10 9 6 5 4 3 3 5 5 5 6 5 6 6 5 4 5 5 4 5 4 3
4 5 7 5 4 2 5 7 4 8 23 13 7 11 14 16 18 15 13 13 12 11 11 9 10 11 10 10 10 10 9 7 5 5 4 4 5 5 7 5 6 5 6 6 6 6 6 5 5
8 8 5 6 6 7 6 3 8 5 6 11 13 12 14 14 13 16 13 10 10 12 9 8 9 10 8 10 11 11 11 10 9 8 5 5 4 3 7 7 6 3 4 6 6 6 7 6 5
3 8 7 4 3 4 4 1 5 6 8 9 5 5 8 10 18 14 9 7 9 13 11 11 10 7 2 5 7 9 8 7 8 8 6 4 5 5 4 9 9 7 5 5 8 8 7 7 7
3 3 5 8 3 3 3 4 5 7 7 5 6 6 9 10 14 6 7 10 11 13 12 10 8 11 12 10 9 7 9 9 8 5 4 5 4 2 6 6 7 7 4 5 4 5 10 6 6
5 7 3 4 3 1 3 3 7 1 3 2 3 7 7 8 11 7 8 7 8 11 10 14 15 14 15 7 12 12 13 11 7 6 8 7 4 7 8 7 7 6 4 3 3 4 8 8 5
2 1 6 6 5 7 5 8 8 15 14 14 11 8 8 8 6 3 7 7 11 12 13 14 12 12 12 9 16 9 16 11 10 10 9 5 4 8 9 9 9 6 1 2 4 3 8 10 7
4 7 6 7 4 1 4 6 2 11 14 14 11 9 4 2 3 5 6 7 8 10 6 5 12 12 10 9 9 15 16 14 8 9 8 6 9 6 10 9 6 5 6 10 9 4 9 11 9
Wind_Direction
189 104 93 6 53 63 12 360 33 351 81 280 147 162 121 34 144 185 129 132 129 145 158 149 155 151 146 146 134 118 110 102 101 107 108 103 104 103 106 112 112 111 105 99 102 107 104 105 109
131 129 97 193 84 74 351 353 63 60 100 103 92 80 48 63 57 110 104 141 140 144 133 146 150 147 147 146 131 121 115 107 105 105 102 104 108 107 105 111 117 109 108 103 104 105 108 108 112
179 191 91 81 69 71 125 11 80 99 138 59 103 64 75 97 101 136 135 141 139 133 138 153 148 150 152 149 136 119 117 119 117 115 116 123 121 113 113 115 108 114 113 108 100 102 107 106 101
181 21 26 76 98 200 149 166 119 108 73 51 118 65 64 232 145 142 140 140 132 136 140 153 153 154 154 148 133 123 132 124 125 119 123 123 122 118 117 119 120 117 118 114 113 119 111 104 88
35 62 40 73 44 59 106 181 100 133 60 92 89 109 72 121 101 134 141 141 142 146 150 149 156 154 153 147 137 133 129 128 129 126 128 123 123 132 123 124 117 120 122 119 121 125 107 87 67
60 86 40 106 88 87 178 144 154 110 111 97 99 104 95 127 131 142 141 137 145 149 140 156 158 155 154 151 143 141 132 140 137 133 124 125 128 130 128 127 130 128 124 122 126 122 100 79 62
69 44 148 188 107 125 147 183 146 134 128 122 132 79 68 131 136 136 128 131 142 143 137 140 148 158 159 157 155 152 148 136 132 131 135 138 145 136 131 132 129 132 130 132 129 119 103 96 90
185 6 35 237 173 119 158 148 143 142 141 128 141 153 164 167 141 121 122 136 138 148 141 148 140 128 143 167 167 161 152 143 145 141 149 151 152 146 146 141 142 141 138 138 134 121 122 113 104
216 71 297 199 171 161 154 141 160 92 137 161 204 143 146 142 136 130 135 143 153 161 158 164 145 139 148 147 167 162 160 155 153 152 161 148 92 130 128 157 158 155 157 159 155 129 121 122 134
29 113 219 195 96 147 162 161 143 135 157 151 95 105 136 151 152 154 160 170 175 178 181 180 166 158 160 160 144 144 165 135 125 133 135 132 132 132 149 175 175 169 170 172 148 134 111 161 141
193 219 209 59 100 61 137 151 112 147 206 166 152 149 159 162 166 166 173 183 180 176 182 188 184 178 169 163 155 158 155 143 154 177 177 169 152 178 142 166 111 107 167 161 151 126 127 175 159
224 284 330 117 130 125 148 153 141 172 193 154 152 156 163 168 174 175 182 177 182 180 190 187 188 185 186 156 171 174 171 170 185 197 194 177 190 202 194 167 189 193 110 215 121 134 156 207 241
268 150 285 23 346 135 131 146 152 187 153 134 150 163 172 177 180 187 192 177 175 183 190 190 187 192 188 180 175 176 188 182 188 189 200 189 196 191 184 198 199 210 196 198 228 244 190 187 231
267 143 148 46 3 101 114 113 104 135 149 159 149 176 180 184 184 184 186 192 184 184 191 185 194 198 182 182 184 192 180 183 187 200 207 198 187 182 192 201 217 216 205 208 198 206 206 231 219
143 90 33 40 30 72 102 29 164 152 164 175 177 164 189 196 189 185 186 188 187 193 188 189 192 192 191 191 179 197 194 179 196 211 213 197 187 186 191 198 213 229 215 195 198 183 174 213 225
110 86 147 228 104 350 48 224 154 161 167 189 202 203 185 198 198 184 183 188 184 186 186 189 193 194 191 196 180 193 196 191 200 199 200 207 195 190 196 201 211 218 199 193 187 172 184 217 215
12 207 218 163 192 128 89 170 174 175 177 187 209 215 219 225 187 195 179 181 181 182 177 185 194 191 194 193 181 191 203 196 193 192 198 209 218 202 197 199 224 211 183 165 169 186 170 183 226
209 206 219 197 193 151 202 224 169 184 186 194 205 217 223 229 210 186 177 178 179 175 174 172 189 184 183 162 151 174 207 220 178 205 204 195 215 215 201 200 203 198 182 172 171 179 208 200 213
207 196 181 199 187 124 213 213 185 187 200 203 207 217 225 228 210 175 179 174 167 168 166 177 170 183 163 149 165 192 191 188 216 209 214 199 195 215 205 217 199 172 179 199 192 177 195 242 181
271 162 199 124 152 103 206 231 196 189 203 205 204 213 224 227 193 172 180 173 176 176 182 185 192 179 191 175 159 155 162 206 204 215 227 212 204 211 203 204 211 197 196 189 197 186 172 218 174
12 164 195 138 105 36 88 331 198 222 210 216 221 219 216 217 228 210 184 179 180 186 185 188 190 186 191 182 105 55 48 58 106 215 228 220 213 213 208 206 212 216 206 208 209 200 189 214 222
67 193 140 135 101 192 151 245 246 213 214 213 217 212 193 126 113 226 221 212 196 189 192 195 187 183 191 180 166 164 178 180 224 218 221 226 220 219 213 210 209 220 217 234 221 203 204 166 224
212 171 98 139 138 108 203 70 263 162 226 221 215 206 176 166 189 211 200 198 196 188 184 184 198 193 193 187 188 185 201 200 214 228 227 220 225 233 226 222 207 217 214 233 239 228 212 204 207
91 65 49 57 122 77 226 156 271 174 215 221 212 191 181 182 202 215 199 177 186 181 183 170 174 205 192 197 201 196 204 209 218 226 226 226 218 225 231 213 219 220 222 235 232 223 214 212 221
71 55 350 3 12 224 318 97 234 278 203 201 197 186 181 186 178 199 203 193 166 181 168 168 176 205 208 209 202 207 215 209 213 225 219 214 221 229 231 212 215 253 315 292 265 235 230 220 213
105 136 151 225 215 264 330 218 338 300 154 173 164 122 137 187 214 198 207 169 179 145 179 188 178 169 87 32 317 303 266 235 233 223 214 211 210 216 16 65 82 58 38 359 341 301 257 210 217
194 171 190 104 4 72 281 307 65 32 55 91 113 145 195 214 236 137 182 198 167 154 169 160 94 78 60 21 336 273 277 265 253 249 239 213 204 124 126 134 148 163 207 240 241 283 286 236 222
140 164 69 15 144 147 319 270 177 188 157 114 175 206 234 263 270 155 193 164 125 134 121 112 127 166 180 194 273 278 264 250 258 240 228 218 182 146 162 180 195 208 282 97 198 303 286 244 230
51 351 54 117 127 152 151 260 197 171 184 179 204 209 207 229 270 305 147 123 129 134 148 169 157 144 161 172 260 272 266 241 229 240 256 242 171 165 174 198 212 215 41 260 233 210 274 250 238
186 176 138 121 224 158 145 268 282 169 176 167 177 191 180 321 14 62 91 116 147 158 187 171 148 186 189 188 194 230 257 249 225 227 245 222 235 166 186 211 209 189 181 216 217 158 245 236 237